Location: Balsareny
(41.8670°N, 1.8830°E)
Time: 01:11:35
(UTC+02:00)

X-37B - Pass Details

Date: 25 June 2021
Orbit: 383 x 392 km, 45.0° (Epoch: 01 July)

Event Time Altitude Azimuth Distance (km) Brightness Sun altitude
Rises 22:07:45 0° 237° (WSW) 2,248 4.7 -6.2°
Reaches altitude 10° 22:09:49 10° 232° (SW) 1,396 3.6 -6.5°
Maximum altitude 22:12:54 54° 155° (SSE) 473 0.7 -7.0°
Drops below altitude 10° 22:15:59 10° 76° (ENE) 1,401 3.1 -7.4°
Sets 22:18:04 0° 72° (ENE) 2,256 4.2 -7.7°
